Weather Roundup
Issued by NWS

Home | Current Version | Previous Version | Text Only | Print | Product List | Glossary On
Versions: 1 2 3 4 5 6 7 8 9 10 11 12 13 14 15 16 17 18 19 20 21 22 23 24 25 26 27 28 29 30 31 32 33 34 35 36 37 38 39 40 41 42 43 44 45 46 47 48 49 50
000
NZUS93 KARX 231810
HRRWXR

CURRENT HOURLY OBSERVATIONS ACROSS
MUCH OF THE UPPER MISSISSIPPI VALLEY
NATIONAL WEATHER SERVICE LA CROSSE WI
100 PM CDT WED JUL 23 2014


...SOUTHEAST MINNESOTA...


CITY           SKY/WX    TMP DP  RH WIND       PRES   REMARKS
ROCHESTER      MOSUNNY   76  58  53 N5        30.25S
ROCHESTER/MAYO FAIR      76  47  35 NW3       30.24F
WINONA         PTSUNNY   77  55  47 CALM      30.22S
AUSTIN         PTSUNNY   73  54  49 CALM      30.25S
ALBERT LEA     MOSUNNY   77  54  44 N3        30.25S
DODGE CENTER   MOSUNNY   75  57  53 N6        30.25F
PRESTON        MOSUNNY   74  59  58 NE6       30.26R
OWATONNA       MOSUNNY   77  52  41 N6        30.25S
FARIBAULT      MOSUNNY   81  43  26 NW3       30.25S
$$

...ELSEWHERE IN MINNESOTA...


CITY           SKY/WX    TMP DP  RH WIND       PRES   REMARKS
MINNEAPOLIS    MOSUNNY   78  51  38 W9G18     30.23S
INTNL FALLS    CLOUDY    72  50  45 N6        30.27F
DULUTH         MOSUNNY   72  52  49 N7        30.25S
RED WING       MOSUNNY   81  48  32 NW5       30.21F
REDWOOD FALLS  MOSUNNY   80  52  37 VRB7      30.26S
MANKATO        MOSUNNY   75  50  41 E6        30.25F
WORTHINGTON    PTSUNNY   75  57  53 E9        30.29S
FAIRMONT       PTSUNNY   77  55  47 E6        30.26S
$$

...SOUTHWEST WISCONSIN...


CITY           SKY/WX    TMP DP  RH WIND       PRES   REMARKS
LA CROSSE      MOSUNNY   78  57  48 W9        30.21S
PRAIRIE DU CHI MOSUNNY   76  52  41 NE9       30.20F
BOSCOBEL       MOSUNNY   81  56  42 MISG      30.20F
LONE ROCK      PTSUNNY   80  56  43 NE9       30.20S
PLATTEVILLE    MOSUNNY   75  55  50 N10       30.21S
FORT MC COY    MOSUNNY   77  53  43 W5        30.22S
CAMP DOUGLAS   PTSUNNY   75  59  57 NW6       30.21F
VIROQUA        FAIR      74  56  52 N7        30.23S
WIS DELLS      MOSUNNY   76  50  38 N6        30.20F
$$

...ELSEWHERE IN WISCONSIN...


CITY           SKY/WX    TMP DP  RH WIND       PRES   REMARKS
MILWAUKEE      MOSUNNY   68  54  60 NE16      30.18F
MADISON        PTSUNNY   78  54  43 N15       30.19F
GREEN BAY      MOSUNNY   74  53  48 NE12      30.19F
EAU CLAIRE     MOSUNNY   79  55  43 NE6       30.21S
BLACK RVR FLS  FAIR      78  51  40 NW3       30.20F
MEDFORD        PTSUNNY   70  55  58 N6        30.23S
WAUSAU         MOSUNNY   74  54  49 N8        30.20F
WIS RAPIDS     MOSUNNY   77  53  43 N15       30.22F
MARSHFIELD     MOSUNNY   75  55  49 VRB7      30.21F
RICE LAKE      MOSUNNY   75  54  47 N10       30.24S
$$

...NORTHEAST IOWA...


CITY           SKY/WX    TMP DP  RH WIND       PRES   REMARKS
WATERLOO       MOSUNNY   78  54  43 NE6       30.22S
DUBUQUE        MOSUNNY   75  56  51 E8        30.20F
DECORAH        MOSUNNY   75  55  50 VRB7      30.23S
MASON CITY     PTSUNNY   77  57  50 E6        30.26F
CHARLES CITY   SUNNY     75  55  50 NE6G12    30.25F
OELWEIN        MOSUNNY   77  54  44 NE6G13    30.23F
$$

...ELSEWHERE IN IOWA...


CITY           SKY/WX    TMP DP  RH WIND       PRES   REMARKS
DES MOINES     PTSUNNY   83  59  44 NE8       30.21S
IOWA CITY      SUNNY     78  58  49 NE13      30.20S
FORT DODGE     MOSUNNY   79  61  53 E8        30.25S
MARSHALLTOWN   MOSUNNY   80  57  45 NE13      30.22S
CEDAR RAPIDS   SUNNY     78  54  43 NE13      30.20S
$$

...NORTHERN ILLINOIS...


CITY           SKY/WX    TMP DP  RH WIND       PRES   REMARKS
CHICAGO-OHARE  MOSUNNY   74  48  39 NE20G26   30.16F
DUPAGE         SUNNY     76  52  43 N23       30.16S
CHICAGO-MIDWAY MOSUNNY   72  56  57 NE20      30.16F
MOLINE         SUNNY     79  55  43 NE13G22   30.17R
ROCKFORD       PTSUNNY   75  54  47 NE13      30.19F
STERLING       MOSUNNY   79  57  47 NE12G18   30.18S
PEORIA         SUNNY     79  58  48 E15G22    30.15R
$$

NOTE: "FAIR" INDICATES FEW OR NO CLOUDS BELOW 12,000 FEET WITH NO
SIGNIFICANT WEATHER AND/OR OBSTRUCTIONS TO VISIBILITY. WIND
SPEEDS ARE IN MILES-PER-HOUR.



USA.gov is the U.S. government's official web portal to all federal, state and local government web resources and services.